Hauptseite
METAR-TAF:

METAR-TAF

Flughäfen :

Flughafen Colmar

Colmar, Frankreich

Breite: 48-06-37N, Länge: 7-21-33E, Höhe: 191 m

Beobachtung

Neuester Wetterbericht von vor 23 Minuten, um 04:00 UTC
Wind 6 kt aus Nord/Nordost
Temperatur -1°C
Luftfeuchtigkeit 80%
Luftdruck 1019 hPa
Sichtweite 10 km oder mehr
Geschlossene Wolkendecke in der Höhe von 1600 ft

METAR: LFGA 210400Z AUTO 03006KT 9999 OVC016 M01/M04 Q1019

Zeit: 05:23 (04:23 UTC)


TAF: fehlend

Wetterbeobachtungen und Prognosen von mehr als 4000 Flughäfen (METAR und TAF Bericht).

Die verfügbaren Stationen werden durch gelbe und rote Markierungen auf der Karte dargestellt.

Führen Sie die Maus auf sie, um den Namen der Station zu sehen.

Darauf klicken, um die Beobachtung von Wetterbeobachtungen und Prognosen zu sehen.

Um die Karte zu ändern : klicken Sie auf den grünen Tasten mit einem schwarzen Kreuz Zum Vergrößern, auf den grünen Button mit einem Gedankenstrich zu verkleinern, oder auf die grünen Pfeile für benachbarte Karten.


METAR-TAF: